Flag for Germany Weather past 2 weeks in Bitburg, Rhineland-Palatinate, Germany

Now
51 °F

Broken clouds.


Feels Like: 46 °F
Forecast: 56 / 69 °F
Wind: 16 mph from Southwest

Location: Spangdahlem

Current Time: Jun 2, 2015 at 7:34:50 AM

Latest Report: Jun 2, 2015 at 6:58 AM


Visibility: N/A

Pressure: 29.93 "Hg

Humidity: 92%

Dew point: 49 °F

Location of BitburgLocation

Historic Weather in Bitburg — Graph

°F

Bitburg temperature yesterday

Maximum temperature yesterday: 61 °F (at 4:58 PM)
Minimum temperature yesterday: 48 °F (at 10:58 PM)
Average temperature yesterday: 54 °F

Past Weeks' High & Low Weather Summary

 TemperatureHumidityPressure
High69 °F (May 24, 2:58 PM)100% (May 18, 4:58 AM)30.32 "Hg (May 18, 4:58 AM)
Low35 °F (May 21, 5:58 AM)32% (May 21, 4:58 PM)29.66 "Hg (May 18, 11:58 PM)
Average54 °F69%30.01 "Hg
* Reported May 18 4:58 AM — Jun 2 4:58 AM, Bitburg, Weather by CustomWeather, © 2015

Note: Actual official high and low records may vary slightly from our data, if they occured in-between our weather recording intervals... More about our weather records

Advertising

Bitburg weather history for previous 24 hours

 ConditionsComfort  
Time TempWeatherWind HumidityBarometerVisibility
4:58 AM
Tue, Jun 2
50 °FClear.6 mph88%29.93 "HgN/A
3:58 AM50 °FPassing clouds.8 mph88%29.93 "HgN/A
2:58 AM48 °FClear.No wind87%29.95 "HgN/A
1:58 AM47 °FClear.5 mph90%29.96 "HgN/A
12:58 AM47 °FClear.6 mph88%29.97 "HgN/A
11:58 PM
Mon, Jun 1
48 °FClear.3 mph82%29.99 "HgN/A
10:58 PM48 °FClear.8 mph87%30.00 "HgN/A
9:58 PM52 °FSunny.10 mph77%29.99 "HgN/A
8:58 PM56 °FOvercast.14 mph66%29.98 "HgN/A
7:58 PM56 °FScattered clouds.10 mph57%29.98 "HgN/A
7:48 PM57 °FScattered clouds.12 mph55%30.01 "HgN/A
7:04 PM59 °FPassing clouds.9 mph51%30.01 "HgN/A
6:59 PM59 °FPassing clouds.12 mph51%30.01 "HgN/A
5:58 PM59 °FPassing clouds.9 mph53%30.00 "HgN/A
4:58 PM61 °FScattered clouds.9 mph52%30.00 "HgN/A
3:58 PM59 °FBroken clouds.8 mph55%30.01 "HgN/A
2:58 PM60 °FBroken clouds.3 mph55%30.00 "HgN/A
1:58 PM59 °FBroken clouds.5 mph57%29.99 "HgN/A
12:58 PM58 °FBroken clouds.8 mph65%30.00 "HgN/A
11:58 AM56 °FBroken clouds.5 mph73%30.01 "HgN/A
10:58 AM54 °FBroken clouds.5 mph82%30.00 "HgN/A
10:04 AM52 °FBroken clouds.5 mph88%30.02 "HgN/A
9:58 AM52 °FPartly sunny.7 mph88%29.99 "HgN/A
8:58 AM50 °FLow clouds.7 mph94%29.99 "HgN/A
8:03 AM50 °FMostly cloudy.6 mph100%30.01 "HgN/A
7:58 AM50 °FMostly cloudy.8 mph100%29.98 "HgN/A
7:04 AM50 °FMore clouds than sun.5 mph100%30.00 "HgN/A
Weather by CustomWeather, © 2015

See weather overviewHow to use our weather pages